Time,TemperatureF,DewpointF,PressureIn,WindDirection,WindDirectionDegrees,WindSpeedMPH,WindSpeedGustMPH,Humidity,HourlyPrecipIn,Conditions,Clouds,dailyrainin,SoftwareType,DateUTC
2013-08-07 00:00:00,59.1,54.3,30.17,SSE,156,0.0,0.0,84,0.00,,CLR,0.00,VWS V14.01,2013-08-07 04:00:00,
2013-08-07 00:08:00,59.1,54.9,30.17,SSE,156,0.0,0.0,86,0.00,,CLR,0.00,VWS V14.01,2013-08-07 04:08:00,
2013-08-07 00:13:00,59.1,55.2,30.17,SSE,156,0.0,0.0,87,0.00,,CLR,0.00,VWS V14.01,2013-08-07 04:13:00,
2013-08-07 00:18:00,59.1,55.2,30.17,SSE,156,0.0,0.0,87,0.00,,CLR,0.00,VWS V14.01,2013-08-07 04:18:00,
2013-08-07 00:23:00,59.1,55.2,30.17,SSE,156,0.0,0.0,87,0.00,,CLR,0.00,VWS V14.01,2013-08-07 04:23:00,
2013-08-07 00:28:00,59.1,55.5,30.17,SSE,156,0.0,0.0,88,0.00,,CLR,0.00,VWS V14.01,2013-08-07 04:28:00,
2013-08-07 00:33:00,59.1,55.9,30.18,SSE,156,0.0,0.0,89,0.00,,CLR,0.00,VWS V14.01,2013-08-07 04:33:00,
2013-08-07 00:38:00,59.1,55.9,30.18,SSE,156,0.0,0.0,89,0.00,,CLR,0.00,VWS V14.01,2013-08-07 04:38:00,
2013-08-07 00:43:00,58.9,55.7,30.18,SSE,156,0.0,0.0,89,0.00,,CLR,0.00,VWS V14.01,2013-08-07 04:43:00,
2013-08-07 00:48:00,58.9,55.7,30.18,SSE,156,0.0,0.0,89,0.00,,CLR,0.00,VWS V14.01,2013-08-07 04:48:00,
2013-08-07 00:53:00,58.6,55.4,30.18,SSE,156,0.0,0.0,89,0.00,,CLR,0.00,VWS V14.01,2013-08-07 04:53:00,
2013-08-07 00:58:00,58.5,55.3,30.18,SSE,156,0.0,0.0,89,0.00,,CLR,0.00,VWS V14.01,2013-08-07 04:58:00,
2013-08-07 01:03:00,58.5,55.3,30.18,SSE,156,0.0,0.0,89,0.00,,CLR,0.00,VWS V14.01,2013-08-07 05:03:00,
2013-08-07 01:08:00,58.3,55.1,30.18,SSE,156,0.0,0.0,89,0.00,,CLR,0.00,VWS V14.01,2013-08-07 05:08:00,
2013-08-07 01:13:00,58.3,55.4,30.18,SSE,156,0.0,0.0,90,0.00,,CLR,0.00,VWS V14.01,2013-08-07 05:13:00,
2013-08-07 01:18:00,58.3,55.4,30.18,SSE,156,0.0,0.0,90,0.00,,CLR,0.00,VWS V14.01,2013-08-07 05:18:00,
2013-08-07 01:23:00,58.3,55.4,30.18,SSE,156,0.0,0.0,90,0.00,,CLR,0.00,VWS V14.01,2013-08-07 05:23:00,
2013-08-07 01:28:00,58.2,55.3,30.18,SSE,156,0.0,0.0,90,0.00,,CLR,0.00,VWS V14.01,2013-08-07 05:28:00,
2013-08-07 01:33:00,58.0,55.1,30.18,SSE,156,0.0,0.0,90,0.00,,CLR,0.00,VWS V14.01,2013-08-07 05:33:00,
2013-08-07 01:38:00,57.9,54.7,30.18,SSE,156,0.0,0.0,89,0.00,,CLR,0.00,VWS V14.01,2013-08-07 05:38:00,
2013-08-07 01:43:00,57.7,54.8,30.18,SSE,156,0.0,0.0,90,0.00,,CLR,0.00,VWS V14.01,2013-08-07 05:43:00,
2013-08-07 01:48:00,57.6,54.7,30.18,SSE,156,0.0,0.0,90,0.00,,CLR,0.00,VWS V14.01,2013-08-07 05:48:00,
2013-08-07 01:53:00,57.4,54.5,30.18,SSE,155,0.0,0.0,90,0.00,,CLR,0.00,VWS V14.01,2013-08-07 05:53:00,
2013-08-07 01:58:00,57.4,54.5,30.18,SSE,155,0.0,0.0,90,0.00,,CLR,0.00,VWS V14.01,2013-08-07 05:58:00,
2013-08-07 02:03:00,57.3,54.4,30.18,SSE,156,0.0,0.0,90,0.00,,CLR,0.00,VWS V14.01,2013-08-07 06:03:00,
2013-08-07 02:08:00,57.1,54.2,30.18,SSE,156,0.0,0.0,90,0.00,,CLR,0.00,VWS V14.01,2013-08-07 06:08:00,
2013-08-07 02:13:00,57.1,54.2,30.18,SSE,155,0.0,0.0,90,0.00,,CLR,0.00,VWS V14.01,2013-08-07 06:13:00,
2013-08-07 02:18:00,57.0,53.8,30.18,SSE,155,0.0,0.0,89,0.00,,CLR,0.00,VWS V14.01,2013-08-07 06:18:00,
2013-08-07 02:23:00,57.0,54.1,30.18,SSE,155,0.0,0.0,90,0.00,,CLR,0.00,VWS V14.01,2013-08-07 06:23:00,
2013-08-07 02:28:00,56.8,53.9,30.18,SSE,155,0.0,0.0,90,0.00,,CLR,0.00,VWS V14.01,2013-08-07 06:28:00,
2013-08-07 02:33:00,56.6,53.7,30.17,SSE,155,0.0,0.0,90,0.00,,CLR,0.00,VWS V14.01,2013-08-07 06:33:00,
2013-08-07 02:38:00,56.6,53.7,30.17,SSE,156,0.0,0.0,90,0.00,,CLR,0.00,VWS V14.01,2013-08-07 06:38:00,
2013-08-07 02:43:00,56.5,53.6,30.17,SSE,155,0.0,0.0,90,0.00,,CLR,0.00,VWS V14.01,2013-08-07 06:43:00,
2013-08-07 02:48:00,56.5,53.6,30.18,SSE,155,0.0,0.0,90,0.00,,CLR,0.00,VWS V14.01,2013-08-07 06:48:00,
2013-08-07 02:53:00,56.5,53.6,30.18,SSE,156,0.0,0.0,90,0.00,,CLR,0.00,VWS V14.01,2013-08-07 06:53:00,
2013-08-07 02:58:00,56.3,53.4,30.18,SSE,156,0.0,0.0,90,0.00,,CLR,0.00,VWS V14.01,2013-08-07 06:58:00,
2013-08-07 03:03:00,56.3,53.4,30.18,SSE,155,0.0,0.0,90,0.00,,CLR,0.00,VWS V14.01,2013-08-07 07:03:00,
2013-08-07 03:08:00,56.2,53.3,30.18,SSE,156,0.0,0.0,90,0.00,,CLR,0.00,VWS V14.01,2013-08-07 07:08:00,
2013-08-07 03:13:00,56.0,53.1,30.18,SSE,155,0.0,0.0,90,0.00,,CLR,0.00,VWS V14.01,2013-08-07 07:13:00,
2013-08-07 03:18:00,55.9,52.7,30.18,SSE,155,0.0,0.0,89,0.00,,CLR,0.00,VWS V14.01,2013-08-07 07:18:00,
2013-08-07 03:23:00,55.6,52.7,30.18,SSE,155,0.0,0.0,90,0.00,,CLR,0.00,VWS V14.01,2013-08-07 07:23:00,
2013-08-07 03:29:00,55.6,52.7,30.18,SSE,155,0.0,0.0,90,0.00,,CLR,0.00,VWS V14.01,2013-08-07 07:29:00,
2013-08-07 03:34:00,55.6,53.0,30.18,SSE,155,0.0,0.0,91,0.00,,CLR,0.00,VWS V14.01,2013-08-07 07:34:00,
2013-08-07 03:39:00,55.5,52.9,30.18,SSE,155,0.0,0.0,91,0.00,,CLR,0.00,VWS V14.01,2013-08-07 07:39:00,
2013-08-07 03:44:00,55.5,52.9,30.18,SSE,156,0.0,0.0,91,0.00,,CLR,0.00,VWS V14.01,2013-08-07 07:44:00,
2013-08-07 03:49:00,55.5,52.9,30.19,SSE,155,0.0,0.0,91,0.00,,CLR,0.00,VWS V14.01,2013-08-07 07:49:00,
2013-08-07 03:54:00,55.5,52.9,30.19,SSE,156,0.0,0.0,91,0.00,,CLR,0.00,VWS V14.01,2013-08-07 07:54:00,
2013-08-07 03:59:00,55.5,53.2,30.19,SSE,155,0.0,0.0,92,0.00,,CLR,0.00,VWS V14.01,2013-08-07 07:59:00,
2013-08-07 04:04:00,55.5,53.2,30.19,SSE,156,0.0,0.0,92,0.00,,CLR,0.00,VWS V14.01,2013-08-07 08:04:00,
2013-08-07 04:05:00,55.5,53.2,30.19,SSE,155,0.0,0.0,92,0.00,,CLR,0.00,VWS V14.01,2013-08-07 08:05:00,
2013-08-07 04:10:00,55.5,53.2,30.19,SSE,155,0.0,0.0,92,0.00,,CLR,0.00,VWS V14.01,2013-08-07 08:10:00,
2013-08-07 04:15:00,55.3,53.0,30.19,SSE,155,0.0,0.0,92,0.00,,CLR,0.00,VWS V14.01,2013-08-07 08:15:00,
2013-08-07 04:20:00,55.3,53.0,30.19,SSE,156,0.0,0.0,92,0.00,,CLR,0.00,VWS V14.01,2013-08-07 08:20:00,
2013-08-07 04:25:00,55.3,53.0,30.19,SSE,156,0.0,0.0,92,0.00,,CLR,0.00,VWS V14.01,2013-08-07 08:25:00,
2013-08-07 04:30:00,55.3,53.0,30.19,SSE,155,0.0,1.5,92,0.00,,CLR,0.00,VWS V14.01,2013-08-07 08:30:00,
2013-08-07 04:35:00,55.3,53.0,30.19,SSE,155,0.0,1.5,92,0.00,,CLR,0.00,VWS V14.01,2013-08-07 08:35:00,
2013-08-07 04:40:00,55.3,53.0,30.19,SSE,156,0.0,1.5,92,0.00,,CLR,0.00,VWS V14.01,2013-08-07 08:40:00,
2013-08-07 04:45:00,55.3,53.3,30.19,SSE,156,0.0,1.5,93,0.00,,CLR,0.00,VWS V14.01,2013-08-07 08:45:00,
2013-08-07 04:50:00,55.3,53.3,30.19,SSE,155,0.0,1.5,93,0.00,,CLR,0.00,VWS V14.01,2013-08-07 08:50:00,
2013-08-07 04:55:00,55.2,53.2,30.19,SSE,155,0.0,0.0,93,0.00,,CLR,0.00,VWS V14.01,2013-08-07 08:55:00,
2013-08-07 05:00:00,55.2,53.2,30.19,SSE,155,0.0,0.0,93,0.00,,CLR,0.00,VWS V14.01,2013-08-07 09:00:00,
2013-08-07 05:05:00,55.0,53.0,30.20,SSE,156,0.0,0.0,93,0.00,,CLR,0.00,VWS V14.01,2013-08-07 09:05:00,
2013-08-07 05:10:00,54.9,52.6,30.20,SSE,156,0.0,0.0,92,0.00,,CLR,0.00,VWS V14.01,2013-08-07 09:10:00,
2013-08-07 05:15:00,54.9,52.9,30.20,SSE,156,0.0,0.0,93,0.00,,CLR,0.00,VWS V14.01,2013-08-07 09:15:00,
2013-08-07 05:20:00,54.9,52.9,30.20,SSE,155,0.0,0.0,93,0.00,,CLR,0.00,VWS V14.01,2013-08-07 09:20:00,
2013-08-07 05:25:00,54.9,52.9,30.20,SSE,155,0.0,0.0,93,0.00,,CLR,0.00,VWS V14.01,2013-08-07 09:25:00,
2013-08-07 05:30:00,54.9,52.9,30.20,SSE,155,0.0,0.0,93,0.00,,CLR,0.00,VWS V14.01,2013-08-07 09:30:00,
2013-08-07 05:35:00,54.9,52.9,30.20,SSE,155,0.0,0.0,93,0.00,,CLR,0.00,VWS V14.01,2013-08-07 09:35:00,
2013-08-07 05:40:00,54.9,52.9,30.20,SSE,155,0.0,0.0,93,0.00,,CLR,0.00,VWS V14.01,2013-08-07 09:40:00,
2013-08-07 05:45:00,54.7,52.7,30.20,SSE,155,0.0,0.0,93,0.00,,CLR,0.00,VWS V14.01,2013-08-07 09:45:00,
2013-08-07 05:50:00,54.7,52.7,30.20,SSE,155,0.0,0.0,93,0.00,,CLR,0.00,VWS V14.01,2013-08-07 09:50:00,
2013-08-07 05:55:00,54.7,52.7,30.20,SSE,155,0.0,0.0,93,0.00,,CLR,0.00,VWS V14.01,2013-08-07 09:55:00,
2013-08-07 06:00:00,54.6,52.6,30.20,SSE,155,0.0,0.0,93,0.00,,CLR,0.00,VWS V14.01,2013-08-07 10:00:00,
2013-08-07 06:05:00,54.4,52.4,30.20,SSE,155,0.0,0.0,93,0.00,,CLR,0.00,VWS V14.01,2013-08-07 10:05:00,
2013-08-07 06:10:00,54.4,52.4,30.20,SSE,156,0.0,0.0,93,0.00,,CLR,0.00,VWS V14.01,2013-08-07 10:10:00,
2013-08-07 06:15:00,54.4,52.4,30.20,SSE,155,0.0,0.0,93,0.00,,CLR,0.00,VWS V14.01,2013-08-07 10:15:00,
2013-08-07 06:20:00,54.6,52.6,30.20,SSE,155,0.0,0.0,93,0.00,,CLR,0.00,VWS V14.01,2013-08-07 10:20:00,
2013-08-07 06:25:00,54.6,52.6,30.20,SSE,155,0.0,0.0,93,0.00,,CLR,0.00,VWS V14.01,2013-08-07 10:25:00,
2013-08-07 06:30:00,54.7,52.7,30.20,SSE,155,0.0,0.0,93,0.00,,CLR,0.00,VWS V14.01,2013-08-07 10:30:00,
2013-08-07 06:35:00,54.9,52.9,30.20,SSE,156,0.0,0.0,93,0.00,,CLR,0.00,VWS V14.01,2013-08-07 10:35:00,
2013-08-07 06:40:00,54.9,52.6,30.20,SSE,155,0.0,0.0,92,0.00,,CLR,0.00,VWS V14.01,2013-08-07 10:40:00,
2013-08-07 06:45:00,55.0,52.7,30.20,SSE,152,0.0,1.5,92,0.00,,CLR,0.00,VWS V14.01,2013-08-07 10:45:00,
2013-08-07 06:51:00,55.2,52.9,30.20,SSE,152,0.0,1.5,92,0.00,,CLR,0.00,VWS V14.01,2013-08-07 10:51:00,
2013-08-07 06:56:00,55.5,52.9,30.20,SSE,153,0.0,1.5,91,0.00,,CLR,0.00,VWS V14.01,2013-08-07 10:56:00,
2013-08-07 07:01:00,55.6,53.0,30.20,SSE,152,0.0,1.5,91,0.00,,CLR,0.00,VWS V14.01,2013-08-07 11:01:00,
2013-08-07 07:06:00,55.9,53.3,30.20,SSE,153,0.0,1.5,91,0.00,,CLR,0.00,VWS V14.01,2013-08-07 11:06:00,
2013-08-07 07:11:00,56.2,53.6,30.20,SSE,152,0.0,0.0,91,0.00,,CLR,0.00,VWS V14.01,2013-08-07 11:11:00,
2013-08-07 07:16:00,56.5,53.9,30.20,SSE,153,0.0,0.0,91,0.00,,CLR,0.00,VWS V14.01,2013-08-07 11:16:00,
2013-08-07 07:21:00,56.8,53.9,30.20,SSE,152,0.0,0.0,90,0.00,,CLR,0.00,VWS V14.01,2013-08-07 11:21:00,
2013-08-07 07:26:00,57.1,53.9,30.20,SSE,152,0.0,0.0,89,0.00,,CLR,0.00,VWS V14.01,2013-08-07 11:26:00,
2013-08-07 07:31:00,57.4,54.2,30.20,SSE,152,0.0,0.0,89,0.00,,CLR,0.00,VWS V14.01,2013-08-07 11:31:00,
2013-08-07 07:36:00,57.7,53.9,30.20,SSE,152,0.0,0.0,87,0.00,,CLR,0.00,VWS V14.01,2013-08-07 11:36:00,
2013-08-07 07:41:00,58.0,54.2,30.20,SSE,152,0.0,0.0,87,0.00,,CLR,0.00,VWS V14.01,2013-08-07 11:41:00,
2013-08-07 07:46:00,58.6,55.1,30.20,SSE,152,0.0,1.5,88,0.00,,CLR,0.00,VWS V14.01,2013-08-07 11:46:00,
2013-08-07 07:51:00,58.9,54.4,30.20,SSE,152,0.0,1.5,85,0.00,,CLR,0.00,VWS V14.01,2013-08-07 11:51:00,
2013-08-07 07:56:00,59.1,54.3,30.20,SSE,152,0.0,1.5,84,0.00,,CLR,0.00,VWS V14.01,2013-08-07 11:56:00,
2013-08-07 08:01:00,59.2,53.7,30.20,SSE,152,0.0,1.5,82,0.00,,CLR,0.00,VWS V14.01,2013-08-07 12:01:00,
2013-08-07 08:06:00,59.7,53.9,30.20,SE,142,0.0,3.0,81,0.00,,CLR,0.00,VWS V14.01,2013-08-07 12:06:00,
2013-08-07 08:11:00,60.3,53.8,30.20,SE,142,0.0,3.0,79,0.00,,CLR,0.00,VWS V14.01,2013-08-07 12:11:00,
2013-08-07 08:16:00,60.8,53.5,30.20,SE,142,0.0,3.0,77,0.00,,CLR,0.00,VWS V14.01,2013-08-07 12:16:00,
2013-08-07 08:21:00,61.0,53.8,30.20,East,89,0.0,3.0,77,0.00,,CLR,0.00,VWS V14.01,2013-08-07 12:21:00,
2013-08-07 08:26:00,61.0,53.4,30.20,East,85,0.0,4.5,76,0.00,,CLR,0.00,VWS V14.01,2013-08-07 12:26:00,
2013-08-07 08:31:00,61.3,54.0,30.20,East,86,0.0,4.5,77,0.00,,CLR,0.00,VWS V14.01,2013-08-07 12:31:00,
2013-08-07 08:36:00,61.6,53.2,30.21,East,86,0.0,4.5,74,0.00,,CLR,0.00,VWS V14.01,2013-08-07 12:36:00,
2013-08-07 08:41:00,61.9,53.5,30.21,East,86,0.0,4.5,74,0.00,,CLR,0.00,VWS V14.01,2013-08-07 12:41:00,
2013-08-07 08:46:00,62.2,53.5,30.21,East,87,0.0,1.5,73,0.00,,CLR,0.00,VWS V14.01,2013-08-07 12:46:00,
2013-08-07 08:51:00,62.9,53.8,30.20,East,87,0.0,1.5,72,0.00,,CLR,0.00,VWS V14.01,2013-08-07 12:51:00,
2013-08-07 08:56:00,63.5,54.7,30.20,East,87,0.0,1.5,73,0.00,,CLR,0.00,VWS V14.01,2013-08-07 12:56:00,
2013-08-07 09:01:00,63.7,54.9,30.20,East,87,0.0,1.5,73,0.00,,CLR,0.00,VWS V14.01,2013-08-07 13:01:00,
2013-08-07 09:06:00,63.7,55.3,30.20,East,86,0.0,1.5,74,0.00,,CLR,0.00,VWS V14.01,2013-08-07 13:06:00,
2013-08-07 09:11:00,63.5,55.4,30.20,East,87,0.0,1.5,75,0.00,,CLR,0.00,VWS V14.01,2013-08-07 13:11:00,
2013-08-07 09:16:00,63.3,55.6,30.20,East,87,0.0,0.0,76,0.00,,CLR,0.00,VWS V14.01,2013-08-07 13:16:00,
2013-08-07 09:21:00,63.2,55.9,30.20,East,87,0.0,0.0,77,0.00,,CLR,0.00,VWS V14.01,2013-08-07 13:21:00,
2013-08-07 09:26:00,63.2,55.9,30.20,East,86,0.0,0.0,77,0.00,,CLR,0.00,VWS V14.01,2013-08-07 13:26:00,
2013-08-07 09:31:00,63.3,56.3,30.20,East,87,0.0,0.0,78,0.00,,CLR,0.00,VWS V14.01,2013-08-07 13:31:00,
2013-08-07 09:36:00,63.7,56.7,30.20,East,86,0.0,0.0,78,0.00,,CLR,0.00,VWS V14.01,2013-08-07 13:36:00,
2013-08-07 09:41:00,64.0,56.7,30.20,East,87,0.0,0.0,77,0.00,,CLR,0.00,VWS V14.01,2013-08-07 13:41:00,
2013-08-07 09:46:00,64.5,56.4,30.20,East,87,0.0,0.0,75,0.00,,CLR,0.00,VWS V14.01,2013-08-07 13:46:00,
2013-08-07 09:51:00,64.8,56.7,30.20,East,87,0.0,0.0,75,0.00,,CLR,0.00,VWS V14.01,2013-08-07 13:51:00,
2013-08-07 09:56:00,65.1,56.2,30.20,East,86,0.0,0.0,73,0.00,,CLR,0.00,VWS V14.01,2013-08-07 13:56:00,
2013-08-07 10:01:00,65.4,56.2,30.20,East,86,0.0,0.0,72,0.00,,CLR,0.00,VWS V14.01,2013-08-07 14:01:00,
2013-08-07 10:06:00,65.8,56.5,30.20,East,87,0.0,0.0,72,0.00,,SCT100,0.00,VWS V14.01,2013-08-07 14:06:00,
2013-08-07 10:11:00,66.1,57.2,30.20,East,87,0.0,0.0,73,0.00,,SCT100,0.00,VWS V14.01,2013-08-07 14:11:00,
2013-08-07 10:16:00,66.3,56.6,30.20,East,87,0.0,1.5,71,0.00,,SCT100,0.00,VWS V14.01,2013-08-07 14:16:00,
2013-08-07 10:21:00,66.3,57.4,30.20,East,87,0.0,1.5,73,0.00,,SCT100,0.00,VWS V14.01,2013-08-07 14:21:00,
2013-08-07 10:26:00,66.4,56.7,30.20,East,87,0.0,1.5,71,0.00,,SCT100,0.00,VWS V14.01,2013-08-07 14:26:00,
2013-08-07 10:31:00,66.8,57.1,30.20,East,87,0.0,1.5,71,0.00,,SCT100,0.00,VWS V14.01,2013-08-07 14:31:00,
2013-08-07 10:36:00,66.9,56.8,30.20,East,87,0.0,1.5,70,0.00,,SCT100,0.00,VWS V14.01,2013-08-07 14:36:00,
2013-08-07 10:41:00,66.9,56.8,30.20,East,87,0.0,1.5,70,0.00,,SCT100,0.00,VWS V14.01,2013-08-07 14:41:00,
2013-08-07 10:46:00,67.3,56.8,30.20,East,87,0.0,1.5,69,0.00,,SCT100,0.00,VWS V14.01,2013-08-07 14:46:00,
2013-08-07 10:51:00,67.4,57.7,30.20,East,86,0.0,1.5,71,0.00,,SCT100,0.00,VWS V14.01,2013-08-07 14:51:00,
2013-08-07 10:56:00,67.8,57.7,30.20,East,87,0.0,0.0,70,0.00,,SCT100,0.00,VWS V14.01,2013-08-07 14:56:00,
2013-08-07 11:01:00,68.3,57.8,30.20,East,87,0.0,0.0,69,0.00,,SCT100,0.00,VWS V14.01,2013-08-07 15:01:00,
2013-08-07 11:06:00,68.4,57.4,30.20,East,86,0.0,0.0,68,0.00,,SCT100,0.00,VWS V14.01,2013-08-07 15:06:00,
2013-08-07 11:11:00,68.4,57.4,30.20,East,86,0.0,0.0,68,0.00,,SCT100,0.00,VWS V14.01,2013-08-07 15:11:00,
2013-08-07 11:16:00,68.4,57.8,30.20,East,87,0.0,0.0,69,0.00,,SCT100,0.00,VWS V14.01,2013-08-07 15:16:00,
2013-08-07 11:21:00,68.4,57.0,30.20,East,87,0.0,0.0,67,0.00,,SCT100,0.00,VWS V14.01,2013-08-07 15:21:00,
2013-08-07 11:26:00,68.4,57.0,30.20,East,87,0.0,0.0,67,0.00,,SCT100,0.00,VWS V14.01,2013-08-07 15:26:00,
2013-08-07 11:31:00,68.1,57.6,30.19,East,87,0.0,0.0,69,0.00,,SCT100,0.00,VWS V14.01,2013-08-07 15:31:00,
2013-08-07 11:36:00,67.9,57.8,30.19,East,87,0.0,0.0,70,0.00,,SCT100,0.00,VWS V14.01,2013-08-07 15:36:00,
2013-08-07 11:41:00,67.9,57.0,30.19,East,87,0.0,0.0,68,0.00,,SCT100,0.00,VWS V14.01,2013-08-07 15:41:00,
2013-08-07 11:46:00,68.3,58.2,30.19,East,87,0.0,0.0,70,0.00,,SCT100,0.00,VWS V14.01,2013-08-07 15:46:00,
2013-08-07 11:51:00,68.6,57.6,30.19,East,87,0.0,0.0,68,0.00,,SCT100,0.00,VWS V14.01,2013-08-07 15:51:00,
2013-08-07 11:56:00,69.3,58.7,30.19,East,87,0.0,1.5,69,0.00,,SCT100,0.00,VWS V14.01,2013-08-07 15:56:00,
2013-08-07 12:01:00,69.8,58.8,30.19,East,87,0.0,1.5,68,0.00,,SCT100,0.00,VWS V14.01,2013-08-07 16:01:00,
2013-08-07 12:06:00,70.1,58.2,30.19,East,86,0.0,1.5,66,0.00,,FEW100,0.00,VWS V14.01,2013-08-07 16:06:00,
2013-08-07 12:11:00,70.3,58.4,30.19,East,87,0.0,1.5,66,0.00,,FEW100,0.00,VWS V14.01,2013-08-07 16:11:00,
2013-08-07 12:17:00,70.5,58.2,30.18,East,87,0.0,1.5,65,0.00,,FEW100,0.00,VWS V14.01,2013-08-07 16:17:00,
2013-08-07 12:22:00,70.6,57.0,30.18,East,86,0.0,1.5,62,0.00,,FEW100,0.00,VWS V14.01,2013-08-07 16:22:00,
2013-08-07 12:27:00,70.8,57.2,30.18,East,86,0.0,1.5,62,0.00,,FEW100,0.00,VWS V14.01,2013-08-07 16:27:00,
2013-08-07 12:32:00,71.1,57.4,30.18,East,87,0.0,3.0,62,0.00,,FEW100,0.00,VWS V14.01,2013-08-07 16:32:00,
2013-08-07 12:37:00,71.5,57.4,30.18,East,87,0.0,3.0,61,0.00,,FEW100,0.00,VWS V14.01,2013-08-07 16:37:00,
2013-08-07 12:42:00,71.8,57.2,30.18,East,86,0.0,3.0,60,0.00,,FEW100,0.00,VWS V14.01,2013-08-07 16:42:00,
2013-08-07 12:47:00,72.0,57.8,30.18,East,87,0.0,3.0,61,0.00,,FEW100,0.00,VWS V14.01,2013-08-07 16:47:00,
2013-08-07 12:52:00,72.0,57.4,30.18,East,87,0.0,3.0,60,0.00,,FEW100,0.00,VWS V14.01,2013-08-07 16:52:00,
2013-08-07 12:57:00,72.3,57.7,30.18,ESE,103,3.0,4.5,60,0.00,,FEW100,0.00,VWS V14.01,2013-08-07 16:57:00,
2013-08-07 13:02:00,72.2,57.6,30.17,ESE,103,0.0,4.5,60,0.00,,FEW100,0.00,VWS V14.01,2013-08-07 17:02:00,
2013-08-07 13:07:00,72.0,57.4,30.17,ESE,104,0.0,4.5,60,0.00,,FEW048,0.00,VWS V14.01,2013-08-07 17:07:00,
2013-08-07 13:12:00,72.2,56.6,30.17,SE,126,3.0,4.5,58,0.00,,FEW048,0.00,VWS V14.01,2013-08-07 17:12:00,
2013-08-07 13:17:00,72.3,55.7,30.17,SE,127,4.5,6.0,56,0.00,,FEW048,0.00,VWS V14.01,2013-08-07 17:17:00,
2013-08-07 13:22:00,72.2,57.1,30.17,SE,127,3.0,6.0,59,0.00,,FEW048,0.00,VWS V14.01,2013-08-07 17:22:00,
2013-08-07 13:27:00,72.3,57.7,30.17,SE,136,4.5,7.5,60,0.00,,FEW048,0.00,VWS V14.01,2013-08-07 17:27:00,
2013-08-07 13:32:00,72.7,57.6,30.17,SE,139,6.0,7.5,59,0.00,,FEW048,0.00,VWS V14.01,2013-08-07 17:32:00,
2013-08-07 13:37:00,72.5,57.4,30.17,SE,138,6.0,7.5,59,0.00,,FEW048,0.00,VWS V14.01,2013-08-07 17:37:00,
2013-08-07 13:42:00,72.3,57.7,30.17,SE,140,7.5,7.5,60,0.00,,FEW048,0.00,VWS V14.01,2013-08-07 17:42:00,
2013-08-07 13:47:00,72.7,58.9,30.17,SE,139,6.0,7.5,62,0.00,,FEW048,0.00,VWS V14.01,2013-08-07 17:47:00,
2013-08-07 13:52:00,72.9,57.8,30.17,SE,139,4.5,7.5,59,0.00,,FEW048,0.00,VWS V14.01,2013-08-07 17:52:00,
2013-08-07 13:57:00,73.2,59.0,30.17,SE,141,4.5,7.5,61,0.00,,FEW048,0.00,VWS V14.01,2013-08-07 17:57:00,
2013-08-07 14:02:00,73.9,58.7,30.17,SE,137,9.0,9.0,59,0.00,,FEW048,0.00,VWS V14.01,2013-08-07 18:02:00,
2013-08-07 14:07:00,74.8,59.5,30.17,SE,140,6.0,9.0,59,0.00,,FEW060,0.00,VWS V14.01,2013-08-07 18:07:00,
2013-08-07 14:12:00,75.1,57.8,30.17,SE,137,6.0,9.0,55,0.00,,FEW060,0.00,VWS V14.01,2013-08-07 18:12:00,
2013-08-07 14:17:00,74.4,57.2,30.17,SE,141,3.0,9.0,55,0.00,,FEW060,0.00,VWS V14.01,2013-08-07 18:17:00,
2013-08-07 14:22:00,74.3,57.6,30.17,SSE,153,4.5,9.0,56,0.00,,FEW060,0.00,VWS V14.01,2013-08-07 18:22:00,
2013-08-07 14:27:00,74.6,54.8,30.17,SSW,199,15.0,19.5,50,0.00,,FEW060,0.00,VWS V14.01,2013-08-07 18:27:00,
2013-08-07 14:32:00,75.0,53.4,30.17,SW,218,10.5,19.5,47,0.00,,FEW060,0.00,VWS V14.01,2013-08-07 18:32:00,
2013-08-07 14:37:00,75.0,55.7,30.17,SSW,197,6.0,19.5,51,0.00,,FEW060,0.00,VWS V14.01,2013-08-07 18:37:00,
2013-08-07 14:42:00,75.7,56.3,30.17,South,171,7.5,19.5,51,0.00,,FEW060,0.00,VWS V14.01,2013-08-07 18:42:00,
2013-08-07 14:47:00,76.2,54.5,30.16,South,171,12.0,19.5,47,0.00,,FEW060,0.00,VWS V14.01,2013-08-07 18:47:00,
2013-08-07 14:52:00,76.7,53.8,30.16,South,189,10.5,19.5,45,0.00,,FEW060,0.00,VWS V14.01,2013-08-07 18:52:00,
2013-08-07 14:57:00,77.1,55.9,30.16,South,189,7.5,19.5,48,0.00,,FEW060,0.00,VWS V14.01,2013-08-07 18:57:00,
2013-08-07 15:02:00,77.5,55.7,30.16,South,189,9.0,21.0,47,0.00,,CLR,0.00,VWS V14.01,2013-08-07 19:02:00,
2013-08-07 15:07:00,77.6,55.2,30.16,SE,140,9.0,21.0,46,0.00,,CLR,0.00,VWS V14.01,2013-08-07 19:07:00,
2013-08-07 15:12:00,77.5,55.1,30.16,SSE,165,12.0,21.0,46,0.00,,CLR,0.00,VWS V14.01,2013-08-07 19:12:00,
2013-08-07 15:17:00,77.3,56.7,30.15,SE,134,12.0,21.0,49,0.00,,CLR,0.00,VWS V14.01,2013-08-07 19:17:00,
2013-08-07 15:22:00,76.9,56.9,30.15,SSE,160,10.5,21.0,50,0.00,,CLR,0.00,VWS V14.01,2013-08-07 19:22:00,
2013-08-07 15:27:00,76.7,55.5,30.15,SSW,197,16.5,16.5,48,0.00,,CLR,0.00,VWS V14.01,2013-08-07 19:27:00,
2013-08-07 15:32:00,76.9,55.2,30.15,SSW,213,6.0,16.5,47,0.00,,CLR,0.00,VWS V14.01,2013-08-07 19:32:00,
2013-08-07 15:37:00,77.1,52.3,30.15,SSW,212,10.5,16.5,42,0.00,,CLR,0.00,VWS V14.01,2013-08-07 19:37:00,
2013-08-07 15:42:00,77.3,56.7,30.15,South,171,7.5,16.5,49,0.00,,CLR,0.00,VWS V14.01,2013-08-07 19:42:00,
2013-08-07 15:48:00,77.3,55.5,30.15,SSW,200,16.5,16.5,47,0.00,,CLR,0.00,VWS V14.01,2013-08-07 19:48:00,
2013-08-07 15:53:00,77.1,55.3,30.15,SSW,202,4.5,16.5,47,0.00,,CLR,0.00,VWS V14.01,2013-08-07 19:53:00,
2013-08-07 15:58:00,77.1,57.6,30.15,SSE,166,6.0,16.5,51,0.00,,CLR,0.00,VWS V14.01,2013-08-07 19:58:00,
2013-08-07 16:03:00,77.1,58.1,30.15,SSW,210,13.5,19.5,52,0.00,,CLR,0.00,VWS V14.01,2013-08-07 20:03:00,
2013-08-07 16:08:00,76.7,53.8,30.15,SW,220,7.5,19.5,45,0.00,,CLR,0.00,VWS V14.01,2013-08-07 20:08:00,
2013-08-07 16:13:00,76.6,55.5,30.15,SW,216,9.0,19.5,48,0.00,,CLR,0.00,VWS V14.01,2013-08-07 20:13:00,
2013-08-07 16:18:00,76.4,55.3,30.14,SSW,205,9.0,19.5,48,0.00,,CLR,0.00,VWS V14.01,2013-08-07 20:18:00,
2013-08-07 16:23:00,76.4,55.8,30.14,South,180,10.5,19.5,49,0.00,,CLR,0.00,VWS V14.01,2013-08-07 20:23:00,
2013-08-07 16:28:00,75.8,54.7,30.14,South,189,16.5,25.5,48,0.00,,CLR,0.00,VWS V14.01,2013-08-07 20:28:00,
2013-08-07 16:33:00,75.3,53.7,30.14,SW,220,12.0,25.5,47,0.00,,CLR,0.00,VWS V14.01,2013-08-07 20:33:00,
2013-08-07 16:38:00,75.3,53.7,30.14,SSW,208,13.5,25.5,47,0.00,,CLR,0.00,VWS V14.01,2013-08-07 20:38:00,
2013-08-07 16:43:00,75.1,54.1,30.14,SSW,208,15.0,25.5,48,0.00,,CLR,0.00,VWS V14.01,2013-08-07 20:43:00,
2013-08-07 16:48:00,74.8,54.9,30.14,SW,224,7.5,25.5,50,0.00,,CLR,0.00,VWS V14.01,2013-08-07 20:48:00,
2013-08-07 16:53:00,74.6,53.6,30.14,South,180,15.0,22.5,48,0.00,,CLR,0.00,VWS V14.01,2013-08-07 20:53:00,
2013-08-07 16:58:00,74.4,54.6,30.14,SSW,197,9.0,21.0,50,0.00,,CLR,0.00,VWS V14.01,2013-08-07 20:58:00,
2013-08-07 17:03:00,74.4,56.2,30.13,South,170,18.0,21.0,53,0.00,,CLR,0.00,VWS V14.01,2013-08-07 21:03:00,
2013-08-07 17:08:00,74.3,56.1,30.13,SSW,199,13.5,21.0,53,0.00,,CLR,0.00,VWS V14.01,2013-08-07 21:08:00,
2013-08-07 17:13:00,74.1,54.3,30.13,South,169,18.0,18.0,50,0.00,,CLR,0.00,VWS V14.01,2013-08-07 21:13:00,
2013-08-07 17:18:00,73.9,57.2,30.13,South,189,13.5,21.0,56,0.00,,CLR,0.00,VWS V14.01,2013-08-07 21:18:00,
2013-08-07 17:23:00,73.7,55.0,30.13,South,180,13.5,21.0,52,0.00,,CLR,0.00,VWS V14.01,2013-08-07 21:23:00,
2013-08-07 17:28:00,73.7,56.0,30.13,SSE,161,18.0,21.0,54,0.00,,CLR,0.00,VWS V14.01,2013-08-07 21:28:00,
2013-08-07 17:33:00,73.7,55.0,30.12,SSE,166,15.0,21.0,52,0.00,,CLR,0.00,VWS V14.01,2013-08-07 21:33:00,
2013-08-07 17:38:00,73.6,54.9,30.12,SSE,153,15.0,19.5,52,0.00,,CLR,0.00,VWS V14.01,2013-08-07 21:38:00,
2013-08-07 17:43:00,73.6,56.5,30.12,SSW,194,13.5,21.0,55,0.00,,CLR,0.00,VWS V14.01,2013-08-07 21:43:00,
2013-08-07 17:48:00,73.6,55.4,30.12,SSE,168,13.5,21.0,53,0.00,,CLR,0.00,VWS V14.01,2013-08-07 21:48:00,
2013-08-07 17:53:00,73.6,55.4,30.12,SSE,168,16.5,21.0,53,0.00,,CLR,0.00,VWS V14.01,2013-08-07 21:53:00,
2013-08-07 17:58:00,73.6,55.4,30.12,SSW,205,13.5,21.0,53,0.00,,CLR,0.00,VWS V14.01,2013-08-07 21:58:00,
2013-08-07 18:03:00,73.6,57.0,30.12,SSW,202,13.5,21.0,56,0.00,,CLR,0.00,VWS V14.01,2013-08-07 22:03:00,
2013-08-07 18:08:00,73.6,56.0,30.12,South,171,15.0,21.0,54,0.00,,CLR,0.00,VWS V14.01,2013-08-07 22:08:00,
2013-08-07 18:13:00,73.4,54.7,30.12,South,171,15.0,21.0,52,0.00,,CLR,0.00,VWS V14.01,2013-08-07 22:13:00,
2013-08-07 18:18:00,73.4,54.7,30.12,South,189,16.5,21.0,52,0.00,,CLR,0.00,VWS V14.01,2013-08-07 22:18:00,
2013-08-07 18:23:00,73.4,56.3,30.12,SSE,162,18.0,21.0,55,0.00,,CLR,0.00,VWS V14.01,2013-08-07 22:23:00,
2013-08-07 18:28:00,73.2,56.6,30.12,SSE,164,18.0,21.0,56,0.00,,CLR,0.00,VWS V14.01,2013-08-07 22:28:00,
2013-08-07 18:33:00,73.0,55.9,30.11,SSE,153,13.5,21.0,55,0.00,,CLR,0.00,VWS V14.01,2013-08-07 22:33:00,
2013-08-07 18:38:00,73.0,58.8,30.11,SE,131,18.0,21.0,61,0.00,,CLR,0.00,VWS V14.01,2013-08-07 22:38:00,
2013-08-07 18:43:00,72.5,58.3,30.11,SE,139,22.5,25.5,61,0.00,,CLR,0.00,VWS V14.01,2013-08-07 22:43:00,
2013-08-07 18:48:00,72.2,59.4,30.11,SE,143,22.5,27.0,64,0.00,,CLR,0.00,VWS V14.01,2013-08-07 22:48:00,
2013-08-07 18:53:00,72.0,60.0,30.11,SE,143,24.0,27.0,66,0.00,,CLR,0.00,VWS V14.01,2013-08-07 22:53:00,
2013-08-07 18:58:00,71.7,59.3,30.11,SE,136,24.0,27.0,65,0.00,,CLR,0.00,VWS V14.01,2013-08-07 22:58:00,
2013-08-07 19:03:00,71.5,59.6,30.12,SE,137,19.5,27.0,66,0.00,,CLR,0.00,VWS V14.01,2013-08-07 23:03:00,
2013-08-07 19:08:00,71.1,58.3,30.12,SE,139,21.0,25.5,64,0.00,,CLR,0.00,VWS V14.01,2013-08-07 23:08:00,
2013-08-07 19:13:00,71.0,59.5,30.12,SE,131,21.0,25.5,67,0.00,,CLR,0.00,VWS V14.01,2013-08-07 23:13:00,
2013-08-07 19:18:00,70.8,59.3,30.11,SE,142,21.0,25.5,67,0.00,,CLR,0.00,VWS V14.01,2013-08-07 23:18:00,
2013-08-07 19:23:00,70.6,59.5,30.11,SE,139,19.5,27.0,68,0.00,,CLR,0.00,VWS V14.01,2013-08-07 23:23:00,
2013-08-07 19:28:00,70.5,59.4,30.11,SE,137,22.5,27.0,68,0.00,,CLR,0.00,VWS V14.01,2013-08-07 23:28:00,
2013-08-07 19:33:00,70.3,58.4,30.11,SE,131,18.0,27.0,66,0.00,,CLR,0.00,VWS V14.01,2013-08-07 23:33:00,
2013-08-07 19:38:00,70.1,59.1,30.11,ESE,122,16.5,27.0,68,0.00,,CLR,0.00,VWS V14.01,2013-08-07 23:38:00,
2013-08-07 19:43:00,69.9,56.8,30.11,SE,125,13.5,27.0,63,0.00,,CLR,0.00,VWS V14.01,2013-08-07 23:43:00,
2013-08-07 19:48:00,69.6,57.3,30.11,SE,125,16.5,25.5,65,0.00,,CLR,0.00,VWS V14.01,2013-08-07 23:48:00,
2013-08-07 19:53:00,69.6,58.2,30.11,SE,126,10.5,24.0,67,0.00,,CLR,0.00,VWS V14.01,2013-08-07 23:53:00,
2013-08-07 19:58:00,69.4,58.0,30.11,SE,141,19.5,24.0,67,0.00,,CLR,0.00,VWS V14.01,2013-08-07 23:58:00,
2013-08-07 20:03:00,69.4,58.0,30.12,SE,143,19.5,24.0,67,0.00,,CLR,0.00,VWS V14.01,2013-08-08 00:03:00,
2013-08-07 20:08:00,69.4,59.2,30.12,SE,143,21.0,24.0,70,0.00,,CLR,0.00,VWS V14.01,2013-08-08 00:08:00,
2013-08-07 20:13:00,69.3,58.3,30.12,SE,139,16.5,27.0,68,0.00,,CLR,0.00,VWS V14.01,2013-08-08 00:13:00,
2013-08-07 20:18:00,69.3,59.1,30.12,SE,143,21.0,27.0,70,0.00,,CLR,0.00,VWS V14.01,2013-08-08 00:18:00,
2013-08-07 20:23:00,69.1,58.9,30.12,SSE,149,21.0,27.0,70,0.00,,CLR,0.00,VWS V14.01,2013-08-08 00:23:00,
2013-08-07 20:28:00,68.9,59.1,30.12,SSE,154,22.5,27.0,71,0.00,,CLR,0.00,VWS V14.01,2013-08-08 00:28:00,
2013-08-07 20:33:00,68.8,58.6,30.12,SE,137,21.0,22.5,70,0.00,,CLR,0.00,VWS V14.01,2013-08-08 00:33:00,
2013-08-07 20:38:00,68.8,58.6,30.12,SSE,147,22.5,25.5,70,0.00,,CLR,0.00,VWS V14.01,2013-08-08 00:38:00,
2013-08-07 20:43:00,68.6,58.4,30.12,SE,131,19.5,25.5,70,0.00,,CLR,0.00,VWS V14.01,2013-08-08 00:43:00,
2013-08-07 20:48:00,68.4,58.6,30.12,SE,135,16.5,25.5,71,0.00,,CLR,0.00,VWS V14.01,2013-08-08 00:48:00,
2013-08-07 20:53:00,68.4,57.8,30.12,SSE,148,19.5,25.5,69,0.00,,CLR,0.00,VWS V14.01,2013-08-08 00:53:00,
2013-08-07 20:59:00,68.3,58.2,30.12,SE,137,16.5,25.5,70,0.00,,CLR,0.00,VWS V14.01,2013-08-08 00:59:00,
2013-08-07 21:04:00,68.1,57.6,30.12,ESE,122,7.5,22.5,69,0.00,,CLR,0.00,VWS V14.01,2013-08-08 01:04:00,
2013-08-07 21:09:00,67.9,57.8,30.12,SE,125,10.5,21.0,70,0.00,,CLR,0.00,VWS V14.01,2013-08-08 01:09:00,
2013-08-07 21:14:00,67.9,59.3,30.12,SE,133,9.0,21.0,74,0.00,,CLR,0.00,VWS V14.01,2013-08-08 01:14:00,
2013-08-07 21:19:00,67.8,58.1,30.12,SE,129,3.0,21.0,71,0.00,,CLR,0.00,VWS V14.01,2013-08-08 01:19:00,
2013-08-07 21:24:00,67.6,58.3,30.12,SE,135,4.5,19.5,72,0.00,,CLR,0.00,VWS V14.01,2013-08-08 01:24:00,
2013-08-07 21:29:00,67.4,57.7,30.12,SE,128,3.0,16.5,71,0.00,,CLR,0.00,VWS V14.01,2013-08-08 01:29:00,
2013-08-07 21:34:00,67.3,57.6,30.12,ESE,123,6.0,16.5,71,0.00,,CLR,0.00,VWS V14.01,2013-08-08 01:34:00,
2013-08-07 21:39:00,67.1,57.0,30.12,ESE,122,4.5,15.0,70,0.00,,CLR,0.00,VWS V14.01,2013-08-08 01:39:00,
2013-08-07 21:44:00,67.1,57.4,30.12,SE,135,7.5,13.5,71,0.00,,CLR,0.00,VWS V14.01,2013-08-08 01:44:00,
2013-08-07 21:49:00,66.9,57.2,30.12,ESE,120,3.0,7.5,71,0.00,,CLR,0.00,VWS V14.01,2013-08-08 01:49:00,
2013-08-07 21:54:00,66.8,56.7,30.12,ESE,108,3.0,7.5,70,0.00,,CLR,0.00,VWS V14.01,2013-08-08 01:54:00,
2013-08-07 21:59:00,66.8,57.1,30.12,East,95,3.0,7.5,71,0.00,,CLR,0.00,VWS V14.01,2013-08-08 01:59:00,
2013-08-07 22:04:00,66.6,57.3,30.12,East,95,3.0,7.5,72,0.00,,SCT110,0.00,VWS V14.01,2013-08-08 02:04:00,
2013-08-07 22:09:00,66.4,56.7,30.12,ESE,112,4.5,7.5,71,0.00,,SCT110,0.00,VWS V14.01,2013-08-08 02:09:00,
2013-08-07 22:14:00,66.4,57.5,30.12,ESE,112,1.5,7.5,73,0.00,,SCT110,0.00,VWS V14.01,2013-08-08 02:14:00,
2013-08-07 22:19:00,66.4,57.5,30.13,ESE,112,0.0,7.5,73,0.00,,SCT110,0.00,VWS V14.01,2013-08-08 02:19:00,
2013-08-07 22:24:00,66.3,57.8,30.13,East,98,0.0,7.5,74,0.00,,SCT110,0.00,VWS V14.01,2013-08-08 02:24:00,
2013-08-07 22:29:00,66.1,57.2,30.13,East,91,4.5,7.5,73,0.00,,SCT110,0.00,VWS V14.01,2013-08-08 02:29:00,
2013-08-07 22:34:00,65.9,57.4,30.12,East,89,4.5,7.5,74,0.00,,SCT110,0.00,VWS V14.01,2013-08-08 02:34:00,
2013-08-07 22:39:00,65.8,56.9,30.12,East,89,3.0,6.0,73,0.00,,SCT110,0.00,VWS V14.01,2013-08-08 02:39:00,
2013-08-07 22:44:00,65.8,57.3,30.12,ENE,58,1.5,6.0,74,0.00,,SCT110,0.00,VWS V14.01,2013-08-08 02:44:00,
2013-08-07 22:49:00,65.4,56.5,30.13,ENE,62,1.5,6.0,73,0.00,,SCT110,0.00,VWS V14.01,2013-08-08 02:49:00,
2013-08-07 22:54:00,65.3,56.8,30.13,ENE,62,0.0,6.0,74,0.00,,SCT110,0.00,VWS V14.01,2013-08-08 02:54:00,
2013-08-07 22:58:00,66.6,56.1,30.12,South,189,7.5,16.5,69,0.00,,CLR,0.00,VWS V14.01,2013-08-08 02:58:00,
2013-08-07 22:59:00,65.0,56.9,30.13,ENE,69,1.5,6.0,75,0.00,,SCT110,0.00,VWS V14.01,2013-08-08 02:59:00,
2013-08-07 23:00:00,66.6,55.7,30.12,SSW,200,10.5,16.5,68,0.00,,CLR,0.00,VWS V14.01,2013-08-08 03:00:00,
2013-08-07 23:01:00,66.6,56.5,30.12,South,189,6.0,16.5,70,0.00,,BKN080,0.00,VWS V14.01,2013-08-08 03:01:00,
2013-08-07 23:02:00,66.6,56.1,30.12,South,189,4.5,16.5,69,0.00,,BKN080,0.00,VWS V14.01,2013-08-08 03:02:00,
2013-08-07 23:03:00,66.6,56.1,30.12,SSW,195,4.5,16.5,69,0.00,,BKN080,0.00,VWS V14.01,2013-08-08 03:03:00,
2013-08-07 23:04:00,65.0,56.9,30.13,ENE,70,1.5,6.0,75,0.00,,CLR,0.00,VWS V14.01,2013-08-08 03:04:00,
2013-08-07 23:05:00,66.6,56.5,30.12,SSE,148,3.0,16.5,70,0.00,,BKN080,0.00,VWS V14.01,2013-08-08 03:05:00,
2013-08-07 23:06:00,66.8,57.1,30.12,SE,139,6.0,16.5,71,0.00,,BKN080,0.00,VWS V14.01,2013-08-08 03:06:00,
2013-08-07 23:07:00,66.8,56.7,30.12,SSE,156,6.0,16.5,70,0.00,,BKN080,0.00,VWS V14.01,2013-08-08 03:07:00,
2013-08-07 23:08:00,66.8,55.9,30.12,SSE,151,6.0,16.5,68,0.00,,BKN080,0.00,VWS V14.01,2013-08-08 03:08:00,
2013-08-07 23:09:00,65.3,57.5,30.13,ENE,70,3.0,3.0,76,0.00,,CLR,0.00,VWS V14.01,2013-08-08 03:09:00,
2013-08-07 23:14:00,65.4,57.3,30.13,ENE,70,3.0,4.5,75,0.00,,CLR,0.00,VWS V14.01,2013-08-08 03:14:00,
2013-08-07 23:19:00,65.6,57.8,30.12,ENE,74,4.5,6.0,76,0.00,,CLR,0.00,VWS V14.01,2013-08-08 03:19:00,
2013-08-07 23:24:00,65.6,57.1,30.12,East,87,1.5,6.0,74,0.00,,CLR,0.00,VWS V14.01,2013-08-08 03:24:00,
2013-08-07 23:29:00,65.6,56.7,30.12,ESE,114,0.0,6.0,73,0.00,,CLR,0.00,VWS V14.01,2013-08-08 03:29:00,
2013-08-07 23:34:00,65.8,57.3,30.12,SE,135,6.0,7.5,74,0.00,,CLR,0.00,VWS V14.01,2013-08-08 03:34:00,
2013-08-07 23:39:00,65.9,57.4,30.12,SE,136,4.5,7.5,74,0.00,,CLR,0.00,VWS V14.01,2013-08-08 03:39:00,
2013-08-07 23:44:00,66.1,57.6,30.12,SE,134,6.0,9.0,74,0.00,,CLR,0.00,VWS V14.01,2013-08-08 03:44:00,
2013-08-07 23:49:00,66.1,56.0,30.12,South,171,7.5,9.0,70,0.00,,CLR,0.00,VWS V14.01,2013-08-08 03:49:00,
2013-08-07 23:54:00,66.3,56.6,30.12,SSE,162,13.5,15.0,71,0.00,,CLR,0.00,VWS V14.01,2013-08-08 03:54:00,
2013-08-07 23:59:00,66.4,55.9,30.12,SSE,153,4.5,16.5,69,0.00,,CLR,0.00,VWS V14.01,2013-08-08 03:59:00,